Regional Weather Roundup
Issued by NWS

Home | Current Version | Previous Version | Graphics & Text | Print | Product List | Glossary On
Versions: 1 2 3 4 5 6 7 8 9 10 11 12 13 14 15 16 17 18 19 20 21 22 23 24 25 26 27
000
ASUS45 KBOU 210807
RWRCO

WEATHER ROUNDUP FOR COLORADO
NATIONAL WEATHER SERVICE DENVER/BOULDER CO
100 AM MST SAT JAN 21 2017

NOTE: "FAIR" INDICATES FEW OR NO CLOUDS BELOW 12000 FEET WITH NO
SIGNIFICANT WEATHER AND/OR OBSTRUCTIONS TO VISIBILITY.

COZ001>005-013-030-031-210900-
...NORTHWEST COLORADO...

CITY           SKY/WX    TMP DP  RH WIND       PRES   REMARKS
CRAIG          CLOUDY    26  18  71 E8        29.40F WCI  18
HAYDEN         CLOUDY    21  14  73 SE9       29.39F WCI  11
MEEKER         MOCLDY    24  17  74 NE6       29.37F WCI  17
MOUNT WERNER   NOT AVBL
STEAMBOAT SPGS MOCLDY    17  15  93 CALM      29.41F
WALDEN           N/A     21  12  68 S9        29.42F WCI  11
$$

COZ006>008-011-210900-
...WEST CENTRAL VALLEYS...

CITY           SKY/WX    TMP DP  RH WIND       PRES   REMARKS
GRAND JUNCTION FAIR      34  29  82 E10       29.38F WCI  26
MONTROSE       MOCLDY    31  22  69 NE3       29.42F
EAGLE          MOCLDY    15  12  88 CALM      29.47F
RIFLE          FAIR      27  25  92 S3        29.41F
DELTA          MOCLDY    36  28  74 E9        29.42F
NUCLA          FLURRIES  32  28  86 CALM      29.43F
$$

COZ017>023-064>068-210900-
...SOUTHWEST COLORADO...

CITY           SKY/WX    TMP DP  RH WIND       PRES   REMARKS
DURANGO        LGT SNOW  27  25  92 NE8       29.46F VSB 3/4 WCI  19
CORTEZ         LGT SNOW  31  30  96 NW8       29.42F FOG     WCI  23
PAGOSA SPRINGS LGT SNOW  26  25  97 NE3       29.48F
TELLURIDE      CLOUDY    26  15  64 S9        29.42F WCI  16
WOLF CREEK PAS CLOUDY    10  10 100 S16       29.47F WCI  -7
$$

COZ009-010-012-014-032>034-037-058>063-210900-
...CENTRAL COLORADO...

CITY           SKY/WX    TMP DP  RH WIND       PRES   REMARKS
ASPEN          FAIR      19  13  77 SW6       29.39F WCI  11
BUENA VISTA    FAIR       8   3  79 W7        29.45F WCI  -3
COPPER MTN     FAIR      14   5  67 MISG      29.41F
BERTHOUD PASS  NOT AVBL
COTTONWOOD PAS FAIR      21   9  58 SE5       29.42F WCI  15
GUNNISON       FAIR       7   4  87 CALM      29.48F
KREMMLING      CLOUDY   N/A N/A N/A CALM      29.46F FOG
LEADVILLE      FAIR       5   0  79 N6        29.39F WCI  -6
MONARCH PASS     N/A      9   3  78 SW14      29.50F WCI  -8
SALIDA         FAIR      27  14  58 SW5       29.52F WCI  21
SUNLIGHT       FOG       12  10  92 MISG      29.42F VSB 1/2
WILKERSON PASS FAIR      10   7  85 SW15G22   29.40F WCI  -6
$$

COZ069>075-210900-
...SAN LUIS VALLEY/SANGRE DE CRISTO MOUNTAINS...

CITY           SKY/WX    TMP DP  RH WIND       PRES   REMARKS
ALAMOSA        FAIR      15  13  91 NW5       29.47F WCI   8
LA VETA PASS   MOCLDY    19  14  79 NE22G32   29.42F WCI   3
SAGUACHE       FAIR      10   7  85 NW12      29.50F WCI  -4
$$

COZ035-036-038>040-210900-
...NORTHERN COLORADO FRONT RANGE...

CITY           SKY/WX    TMP DP  RH WIND       PRES   REMARKS
DENVER INTL AP FAIR      25  20  81 S5        29.39F WCI  19
DMNS CITY PARK   N/A     29  23  79 E5G10     29.39F WCI  24
AURORA         PTCLDY    26  18  72 S12       29.39F WCI  16
FRONT RANGE AP FAIR      28  23  80 S7        29.40F WCI  21
ERIE MUNI ARPT FAIR      26  23  88 CALM      29.40F
BOULDER MUN AP MOCLDY    32  27  80 NW7       29.39F WCI  26
CENTENNIAL     FAIR      30  14  51 S7        29.39F WCI  23
BROOMFIELD     FAIR      32  19  59 W6        29.39F WCI  26
FORT COLLINS   FAIR      27  21  80 N5        29.42F WCI  21
LONGMONT       FAIR      29  26  88 NW6       29.43F WCI  22
$$

COZ041-046-047-076>085-087-088-210900-
...PIKES PEAK/PALMER DIVIDE AND SOUTHERN FOOTHILLS...

CITY           SKY/WX    TMP DP  RH WIND       PRES   REMARKS
COLO. SPRINGS  MOCLDY    27  23  85 N10       29.41F WCI  17
A. F. ACADEMY  FAIR      25  25 100 N7        29.39F FOG     WCI  17
SCHRIEVER AFB  NOT AVBL
ELLICOTT       FAIR     N/A N/A N/A E3        29.40F
FALCON         FAIR      24  22  93 CALM      29.41F
FORT CARSON    PTCLDY    26  24  94 NW5       29.40F WCI  20
LIMON          FOG       19  19 100 N3        29.43F VSB 1/4
MONUMENT HILL  CLOUDY    30  12  47 SW8       29.42F WCI  23
TRINIDAD       FAIR      25  12  58 NW8       29.44F WCI  16
$$

COZ042>045-048>051-090-091-210900-
...NORTHEAST COLORADO...

CITY           SKY/WX    TMP DP  RH WIND       PRES   REMARKS
GREELEY ARPT   FAIR      24  21  88 N7        29.43F WCI  16
AKRON          FAIR      27  19  72 W6        29.42F WCI  20
BURLINGTON     FAIR      28  25  88 SW7       29.44F WCI  21
WRAY           FAIR      27  27 100 CALM      29.43
STERLING       FAIR      27  23  86 SW3       29.42S
HOLYOKE        FAIR      32  28  86 SW6       29.42F WCI  26
FORT MORGAN    FAIR      29  27  93 CALM      29.43S
$$

COZ086-089-092>099-210900-
...SOUTHEAST COLORADO...

CITY           SKY/WX    TMP DP  RH WIND       PRES   REMARKS
PUEBLO         FOG       30  29  96 W5        29.43S VSB 1/4 WCI  25
LA JUNTA       FOG       26  23  88 N5        29.44F VSB 1/4 WCI  20
LAMAR          FOG       25  23  92 CALM      29.45S VSB 1/4
SPRINGFIELD      N/A     25  24  96 CALM      29.44F
$$




USA.gov is the U.S. government's official web portal to all federal, state and local government web resources and services.